Location: Unspecified
(51.5147°N, 7.4673°E)
Time: 14:09:28
(UTC+01:00)

Explorer 7 - Pass Details

Date: 16 February 2026
Orbit: 430 x 541 km, 50.2° (Epoch: 11 March)

Event Time Altitude Azimuth Distance (km) Brightness Sun altitude
Rises 21:35:43 0° 281° (W) 2,566 11.2 -35.3°
Enters shadow 21:37:42 - 271° (W) 1,843 10.1 -35.6°
Reaches altitude 10° 21:38:06 10° 268° (W) 1,704 - -35.7°
Maximum altitude 21:41:21 26° 211° (SSW) 1,035 - -36.1°
Drops below altitude 10° 21:44:42 10° 154° (SSE) 1,753 - -36.5°
Sets 21:47:11 0° 142° (SE) 2,656 - -36.9°
